Regional Weather Roundup
Issued by NWS

Home | Current Version | Previous Version | Graphics & Text | Print | Product List | Glossary On
Versions: 1 2 3 4 5 6 7 8 9 10 11 12 13 14 15 16 17 18 19 20 21 22 23 24 25 26 27 28 29 30 31 32 33 34 35 36 37 38 39 40 41 42 43 44 45 46 47 48 49 50
000
ASUS43 KMPX 250710
RWRMN
WEATHER ROUNDUP FOR MINNESOTA
NATIONAL WEATHER SERVICE TWIN CITIES/CHANHASSEN MN
200 AM CDT MON SEP 25 2017


NOTE: "FAIR" INDICATES FEW OR NO CLOUDS BELOW 12,000 FEET WITH NO
SIGNIFICANT WEATHER AND/OR OBSTRUCTIONS TO VISIBILITY. N/A MEANS
CURRENT SKY AND/OR WEATHER CONDITIONS ARE NOT AVAILABLE.

MNZ060>063-068>070-250800-
   Twin Cities Metro

CITY           SKY/WX    TMP DP  RH WIND       PRES   REMARKS
TWIN CITIES    CLOUDY    68  64  87 W7        29.94S
ST PAUL        CLOUDY    69  66  90 NW9       29.94S
CRYSTAL        CLOUDY    66  60  81 NW10      29.93S
BLAINE         CLOUDY    66  66 100 W8        29.94F
LAKEVILLE      CLOUDY    66  66 100 CALM      29.95R
EDEN PRAIRIE   TSTM      65  62  90 NW8       29.93F FOG
SOUTH ST PAUL  CLOUDY    70  66  88 NW5       29.93S
LAKE ELMO      FAIR      68  66  94 NW3       29.95S
$$
MNZ001>005-007-008-013>017-022>024-027-028-250800-
   Northwest Minnesota

CITY           SKY/WX    TMP DP  RH WIND       PRES   REMARKS
BEMIDJI        CLOUDY    47  47  97 W10       30.00R
HALLOCK        CLOUDY    50  46  87 NW10G17   30.03R
ROSEAU         CLOUDY    48  45  87 NW7       29.99R
WARROAD        CLOUDY    48  45  87 NW8       29.98R
THIEF RVR FALL CLOUDY    48  47  96 NW12      30.02R
CROOKSTON      CLOUDY    48  48 100 N10       30.04R
FOSSTON        CLOUDY    46  46 100 NW7       30.02R FOG
DETROIT LAKES  CLOUDY    50  48  93 N10       30.02S
MOORHEAD       CLOUDY    50  48  93 NW7       30.05R
PARK RAPIDS    CLOUDY    50  47  89 NW10      29.99R
MAHNOMEN       CLOUDY    49  47  96 NW9       30.02S
$$
MNZ006-009>011-018-025>026-250800-
   North Central Minnesota

CITY           SKY/WX    TMP DP  RH WIND       PRES   REMARKS
BAUDETTE       CLOUDY    49  49 100 W9        29.95R
FLAG ISLAND    CLOUDY    50  48  93 NW16      29.95R
INTL FALLS     CLOUDY    53  51  93 W8        29.92R
WASKISH        CLOUDY    52  48  87 NW9       29.97R
BIG FORK       MOCLDY    54  52  94 W5        29.95R
LONGVILLE      CLOUDY    54  52  94 W5        29.97R
GRAND RAPIDS   CLOUDY    55  53  93 NW13      29.97R
CRANE LAKE     CLOUDY    55  55 100 W3        29.92R
ORR            CLOUDY    55  52  88 W7        29.90R
COOK           RAIN      57  55  94 W10       29.92R
WALKER         CLOUDY    49  48  97 W7        29.98R
$$
MNZ012-019>021-037-250800-
   Northeast Minnesota

CITY           SKY/WX    TMP DP  RH WIND       PRES   REMARKS
DULUTH         CLOUDY    65  65 100 W8        29.91R
ELY            CLOUDY    61  61 100 W7        29.89R
HIBBING        CLOUDY    57  55  93 W6        29.92R
EVELETH        CLOUDY    63  62  98 W8        29.92R
DULUTH HARBOR  CLOUDY    66  64  94 SW7       29.89S
TWO HARBORS    CLOUDY    66  63  88 W5        29.88R HAZE
SILVER BAY     CLOUDY    64  64 100 CALM      29.87R FOG
GRAND MARAIS     N/A     63  63 100 W5        29.85R
G MARAIS ARPRT   N/A     64  61  88 CALM      29.89F
$$
MNZ029>031-032-039>041-046>048-054>057-064-250800-
   West Central Minnesota

CITY           SKY/WX    TMP DP  RH WIND       PRES   REMARKS
FERGUS FALLS   CLOUDY    50  50 100 N8        30.03F
WHEATON        CLOUDY    52  48  87 NW8       30.06R
MORRIS         CLOUDY    52  52 100 N10G16    30.03R FOG
ALEXANDRIA     CLOUDY    52  50  93 N10       30.01R
ELBOW LAKE     CLOUDY    50  49  97 NW9       30.03R
WADENA         MOCLDY    48  48 100 NW8       30.00S
GLENWOOD       CLOUDY    52  50  93 NW6       30.01R
APPLETON       MOCLDY    54  48  82 NW9       30.02S
BENSON         MOCLDY    54  48  82 N12       30.03R
ORTONVILLE     CLOUDY    52  48  87 N8        30.04R
MADISON        CLOUDY    55  55 100 NW10      30.03R
WILLMAR        CLOUDY    55  54  94 NW8       30.01S
$$
MNZ033>034-036-042>043-049>051-058-059-250800-
   Central Minnesota

CITY           SKY/WX    TMP DP  RH WIND       PRES   REMARKS
ST CLOUD       CLOUDY    58  58 100 NW8       29.97R
SAUK CENTRE    CLOUDY    53  50  89 NW9       30.00R
PAYNESVILLE    CLOUDY    55  53  95 NW7       29.99S
AITKIN         CLOUDY    55  54  94 W3        29.95R
PINE RIVER     CLOUDY    50  48  93 W5        30.02R
BRAINERD       CLOUDY    55  51  86 NW10      29.98R
STAPLES        CLOUDY    52  50  93 NW8       30.00R
LONG PRAIRIE   MOCLDY    52  50  93 NW6       30.00R
LITTLE FALLS   CLOUDY    54  46  76 NW7       29.98R
LITCHFIELD     LGT RAIN  55  55 100 NW8       29.99R
BUFFALO        RAIN      60  57  90 W5        29.97S
MAPLE LAKE     RAIN      60  58  96 NW7       29.98S
HUTCHINSON     LGT RAIN  58  58  98 W5        29.99R
$$
MNZ037-044-045-052-053-250800-
   East Central Minnesota

CITY           SKY/WX    TMP DP  RH WIND       PRES   REMARKS
PRINCETON      LGT RAIN  61  59  94 W6        29.97R
MORA           CLOUDY    61  59  94 W6        29.97R
CAMBRIDGE      CLOUDY    66  64  94 W10       29.95R
RUSH CITY      MOCLDY    65  64  94 SW6       29.94R
MOOSE LAKE     CLOUDY    63  59  88 NW8       29.92R
HINCKLEY       CLOUDY    64  64 100 W7        29.94R
CLOQUET        LGT RAIN  64  61  88 W9        29.92R
MCGREGOR       CLOUDY    59  55  88 W7        29.95R
$$
MNZ071>073-080-081-089-090-097-098-250800-
   Southwest Minnesota

CITY           SKY/WX    TMP DP  RH WIND       PRES   REMARKS
MONTEVIDEO     MOCLDY    54  52  94 N9        30.02R
GRANITE FALLS  MOCLDY    56  52  87 NW7       30.03R
CANBY          CLOUDY    53  51  92 NW8       30.04R
MARSHALL       LGT RAIN  54  51  90 N12       30.01S
REDWOOD FALLS  CLOUDY    55  52  89 NW9       29.99R
OLIVIA         CLOUDY    54  52  94 NW8       29.98R
PIPESTONE      DRIZZLE   55  54  94 NE6       30.02R
WINDOM         HVY RAIN  57  55  94 VRB10     29.98S
WORTHINGTON    TSTM      56  55  97 N7        30.01R
JACKSON        RAIN      59  55  88 CALM      29.99R
TRACY          RAIN      55  54  99 N9        30.01R
SLAYTON        CLOUDY    54  49  81 N12       30.01S
$$
MNZ065>067-074>077-082>085-091>093-250800-
   South Central Minnesota

CITY           SKY/WX    TMP DP  RH WIND       PRES   REMARKS
MANKATO        CLOUDY    62  60  93 NW5       29.98R
NEW ULM        LGT RAIN  55  55 100 NW8       29.97R
ST JAMES       RAIN      59  59 100 N8        29.99R
FAIRMONT       HVY RAIN  61  59  94 NW13      29.97R FOG
FARIBAULT      MOCLDY    66  64  94 NW3       29.96S
OWATONNA       LGT RAIN  66  64  94 NW5       29.96S
WASECA         HVY RAIN  63  59  88 CALM      29.99R
ALBERT LEA     CLOUDY    72  70  94 N3        29.95F
$$
MNZ078>079-086>088-094>096-250800-
   Southeast Minnesota

CITY           SKY/WX    TMP DP  RH WIND       PRES   REMARKS
ROCHESTER      CLEAR     64  61  90 SW5       29.96S
RED WING       CLOUDY    72  63  73 CALM      29.92S
STANTON        CLOUDY    69  66  92 W3        29.94R
DODGE CENTER   PTCLDY    68  64  88 W3        29.96R
WINONA         CLEAR     73  63  68 CALM      29.94S
AUSTIN         PTCLDY    66  63  88 CALM      29.95R
PRESTON        CLEAR     68  61  76 SW3       29.96S
$$
ABBREVIATIONS USED IN REMARKS
   TC - TEMPERATURES IN CELSIUS
  WCI - WIND CHILL INDEX
   HX - HEAT INDEX
  VSB - VISIBILITY
$$




USA.gov is the U.S. government's official web portal to all federal, state and local government web resources and services.